Location: Santa Clara
(37.3540°N, 121.9540°W)
Time: 12:43:06
(UTC-07:00)

ISS - Visible Passes

Search period start: 21 May 2024 00:00
Search period end: 31 May 2024 00:00
Orbit: 409 x 414 km, 51.6° (Epoch: 21 May)

Date Brightness Start Highest point End Pass type
(mag) Time Alt. Az. Time Alt. Az. Time Alt. Az.
21 May -1.4 22:54:29 10° NNW 22:56:45 19° NNE 22:56:45 19° NNE visible
22 May -1.1 22:04:57 10° N 22:06:46 14° NNE 22:08:29 10° NE visible
22 May -0.8 23:40:33 10° NW 23:41:16 15° NW 23:41:16 15° NW visible
23 May -0.9 21:15:47 10° N 21:16:27 10° NNE 21:17:07 10° NNE visible
23 May -2.2 22:50:37 10° NW 22:52:59 34° N 22:52:59 34° N visible
24 May -2.1 22:00:47 10° NNW 22:03:37 25° NNE 22:04:41 21° ENE visible
24 May -0.6 23:37:14 10° WNW 23:37:28 11° WNW 23:37:28 11° WNW visible
25 May -1.4 21:11:01 10° NNW 21:13:18 17° NNE 21:15:35 10° ENE visible
25 May -2.5 22:46:55 10° NW 22:49:10 39° WNW 22:49:10 39° WNW visible
26 May -3.6 21:56:46 10° NW 22:00:03 61° NE 22:00:53 43° E visible
27 May -2.6 21:06:43 10° NNW 21:09:47 33° NNE 21:12:36 11° E visible
27 May -1.7 22:43:37 10° WNW 22:45:23 20° WSW 22:45:23 20° WSW visible
28 May -3.1 21:52:58 10° WNW 21:56:08 43° SW 21:57:07 32° S visible
29 May -3.8 21:02:34 10° NW 21:05:53 89° WSW 21:08:52 12° SE visible
30 May -1.4 21:49:50 10° W 21:51:51 15° SW 21:53:26 12° SSW visible
